Location: Brookfield Center
(41.2406°N, 80.5579°W)
Time: 02:03:53
(UTC+00:00)

Cosmos 1980 Rocket - Pass Details

Date: 18 January 2020
Orbit: 830 x 849 km, 71.0° (Epoch: 22 February)

Event Time Altitude Azimuth Distance (km) Brightness Sun altitude
Rises 10:20:34 0° 180° (S) 3,396 5.4 -26.7°
Reaches altitude 10° 10:23:08 10° 172° (S) 2,464 4.7 -26.2°
Maximum altitude 10:28:20 39° 106° (ESE) 1,251 3.5 -25.2°
Drops below altitude 10° 10:33:34 10° 39° (NE) 2,474 5.0 -24.3°
Sets 10:36:09 0° 32° (NNE) 3,411 5.7 -23.8°
